Volver al catálogo

SL-19 R/B

ActivoPO
NORAD 37155·ROCKET BODY·🇷🇺 Russia

Lanzado Sep 8, 2010 desde Plesetsk Cosmodrome

Loading…

Próximos Pases (próximas 24 horas)

TLE

ActualizadoSource: Space-Track

Época: Sep 14, 2026, 13:20 UTC

1 37155U 10043D   26257.55578762  .00000018  00000-0  33503-4 0  9993
2 37155  82.4579 117.3100 0198257 321.5366  51.4670 12.78572026747572

Sigue SL-19 R/B en tiempo real con AllMySat

Download on the App Store